STARLINK-4351 (53193 NORAD) Tracking and Keplerian Element Data

This shows tracking and keplerian element data for the satellite.

Feedback or suggestion? Click here.




ElementValue
Catalog53193
NameSTARLINK-4351
Epoch Orbit1072
Epoch Day270.11603137
Epoch Year2022
RAAN329.9562
Inclination97.6547
Eccentricity0.0001817
Argument of Perigee90.8924
Mean Anonmoly269.2509
Mean Motion15.01261277
Decay Rate-3.63E-06
L11 53193U 22084E 22270.11603137 -.00000363 00000+0 -23702-4 0 9993
L22 53193 97.6547 329.9562 0001817 90.8924 269.2509 15.01261277 10721

Live tracking and technical data element details for STARLINK-4351 (NORAD 53193). STARLINK-4351 can be tracked NOW for your location showing map with azimuth and elevation plus other details from your city location.

Track the satellite on the map from your city or location and see movement details for azimuth, elevation, latitude, longitude, range, height, and movement on the map or in text.







IsCatalogInMostPopularTable: catalog: 53193, numindb: 8
Update: records affected: 1



GetName: 53193 STARLINK-4351

Hit Count: updated at: Wed, 05 Oct 2022 09:24:05 GMT